Location: Tambov
(52.7163°N, 41.4075°E)
Time: 01:16:33
(UTC+03:00)

X-37B - Visible Passes

Search period start: 27 February 2021 00:00
Search period end: 09 March 2021 00:00
Orbit: 383 x 391 km, 45.0° (Epoch: 10 February)

Date Brightness Start Highest point End Pass type
(mag) Time Alt. Az. Time Alt. Az. Time Alt. Az.
27 Feb 3.3 04:39:47 14° SE 04:39:47 14° SE 04:40:27 10° SE visible
27 Feb 3.0 06:12:53 10° SW 06:13:55 11° SSW 06:14:58 10° S visible
28 Feb 2.9 05:16:21 14° S 05:16:21 14° S 05:17:43 10° SSE visible
